This is the latest recevied weather packets stored in our database for station/object KD2PO-13. If no packets are shown the sender has not sent any weather packets the latest 10 day(s).
| Time | Temp. | Humidity | Pressure | Rain* | Wind** | Luminosity | Snow |
|---|---|---|---|---|---|---|---|
| 1777744642 | 7.22° C | 52% | 0 hPa | 0 mm | - | - | - |
| 1777744343 | 7.78° C | 54% | 0 hPa | 0 mm | - | - | - |
| 1777744043 | 7.78° C | 54% | 0 hPa | 0 mm | - | - | - |
| 1777743743 | 7.22° C | 55% | 0 hPa | 0 mm | - | - | - |
| 1777743443 | 7.22° C | 54% | 0 hPa | 0 mm | - | - | - |
| 1777743143 | 7.22° C | 53% | 0 hPa | 0 mm | - | - | - |
| 1777742843 | 7.78° C | 56% | 0 hPa | 0 mm | - | - | - |
| 1777742543 | 7.78° C | 57% | 0 hPa | 0 mm | - | - | - |
| 1777742243 | 7.78° C | 58% | 0 hPa | 0 mm | - | - | - |
| 1777741942 | 7.22° C | 52% | 0 hPa | 0 mm | - | - | - |
| 1777741643 | 7.22° C | - | - | 0 mm | - | - | - |
| 1777741643 | 7.22° C | 57% | 0 hPa | 0 mm | - | - | - |
| 1777741343 | 6.67° C | 55% | 0 hPa | 0 mm | - | - | - |
| 1777741043 | 6.67° C | 55% | 0 hPa | 0 mm | - | - | - |
| 1777740743 | 6.67° C | 57% | 0 hPa | 0 mm | - | - | - |
| 1777740443 | 6.67° C | 58% | 0 hPa | 0 mm | - | - | - |
| 1777739842 | 6.67° C | 54% | 0 hPa | 0 mm | - | - | - |
| 1777739542 | 6.67° C | 55% | 0 hPa | 0 mm | - | - | - |
| 1777739243 | 6.67° C | 55% | 0 hPa | 0 mm | - | - | - |
| 1777738943 | 6.67° C | 57% | 0 hPa | 0 mm | - | - | - |
| 1777738643 | 6.11° C | 59% | 0 hPa | 0 mm | - | - | - |
| 1777738343 | 6.11° C | 55% | 0 hPa | 0 mm | - | - | - |
| 1777738043 | 6.67° C | 56% | 0 hPa | 0 mm | - | - | - |
| 1777737743 | 6.67° C | 55% | 0 hPa | 0 mm | - | - | - |
| 1777737443 | 6.67° C | 54% | 0 hPa | 0 mm | - | - | - |
* Rain latest hour (hover to see other rain measurements)
** Current wind speed in m/s (hover to see current wind gust speed)